METEOR-M 2

Last updated on Fri Sep 11 2026 00:02:39 GMT+0000 (Coordinated Universal Time)

1 40069U 14037A 26253.59847781 .00000037 00000+0 36275-4 0 9997 2 40069 98.5215 226.3531 0006323 138.6185 221.5472 14.21482696631454
UTC large
Height (km)
Speed (km/s)
/
Latitude / Longitude
Inclination (degrees)
Orbital Period (minutes)
Azimuth
Elevation
Range (km)
Doppler Factor

Next 0 passes for location: London (51.5072 / 0.1276)

No passes found over London.
METEOR-M 2